Time,TemperatureF,DewpointF,PressureIn,WindDirection,WindDirectionDegrees,WindSpeedMPH,WindSpeedGustMPH,Humidity,HourlyPrecipIn,Conditions,Clouds,dailyrainin,SoftwareType,DateUTC
2013-02-27 00:05:00,42.4,34.4,30.17,ENE,72,0.0,3.0,73,0.00,,,0.00,Wunderground v.1.15,2013-02-27 08:05:00,
2013-02-27 00:10:00,42.6,34.5,30.17,ENE,72,0.0,3.0,73,0.00,,,0.00,Wunderground v.1.15,2013-02-27 08:10:00,
2013-02-27 00:15:00,42.8,34.7,30.17,ENE,72,0.0,3.0,73,0.00,,,0.00,Wunderground v.1.15,2013-02-27 08:15:00,
2013-02-27 00:20:00,42.8,34.7,30.17,ENE,72,0.0,3.0,73,0.00,,,0.00,Wunderground v.1.15,2013-02-27 08:20:00,
2013-02-27 00:25:00,42.9,34.5,30.17,ENE,70,1.0,3.0,72,0.00,,,0.00,Wunderground v.1.15,2013-02-27 08:25:00,
2013-02-27 00:30:00,42.9,34.5,30.17,ENE,70,0.0,3.0,72,0.00,,,0.00,Wunderground v.1.15,2013-02-27 08:30:00,
2013-02-27 00:35:00,42.9,34.5,30.17,ENE,70,0.0,3.0,72,0.00,,,0.00,Wunderground v.1.15,2013-02-27 08:35:00,
2013-02-27 00:45:00,43.0,34.6,30.17,ENE,70,0.0,3.0,72,0.00,,,0.00,Wunderground v.1.15,2013-02-27 08:45:00,
2013-02-27 00:50:00,43.1,34.3,30.18,ENE,70,1.0,1.0,71,0.00,,,0.00,Wunderground v.1.15,2013-02-27 08:50:00,
2013-02-27 00:55:00,43.1,34.3,30.18,ENE,70,1.0,3.0,71,0.00,,,0.00,Wunderground v.1.15,2013-02-27 08:55:00,
2013-02-27 01:00:00,43.2,34.4,30.18,ENE,70,0.0,3.0,71,0.00,,,0.00,Wunderground v.1.15,2013-02-27 09:00:00,
2013-02-27 01:05:00,43.2,34.1,30.18,ENE,70,0.0,3.0,70,0.00,,,0.00,Wunderground v.1.15,2013-02-27 09:05:00,
2013-02-27 01:15:00,43.1,34.3,30.18,ENE,70,0.0,3.0,71,0.00,,,0.00,Wunderground v.1.15,2013-02-27 09:15:00,
2013-02-27 01:20:00,43.0,34.2,30.18,ENE,70,0.0,3.0,71,0.00,,,0.00,Wunderground v.1.15,2013-02-27 09:20:00,
2013-02-27 01:25:00,42.8,34.4,30.19,ENE,70,0.0,3.0,72,0.00,,,0.00,Wunderground v.1.15,2013-02-27 09:25:00,
2013-02-27 01:30:00,42.8,34.4,30.19,ENE,70,0.0,3.0,72,0.00,,,0.00,Wunderground v.1.15,2013-02-27 09:30:00,
2013-02-27 01:35:00,42.7,34.3,30.19,ENE,70,0.0,3.0,72,0.00,,,0.00,Wunderground v.1.15,2013-02-27 09:35:00,
2013-02-27 01:40:00,42.5,34.1,30.19,ENE,70,0.0,3.0,72,0.00,,,0.00,Wunderground v.1.15,2013-02-27 09:40:00,
2013-02-27 01:45:00,42.3,34.3,30.19,ENE,70,0.0,3.0,73,0.00,,,0.00,Wunderground v.1.15,2013-02-27 09:45:00,
2013-02-27 01:50:00,42.2,34.2,30.18,ENE,70,0.0,3.0,73,0.00,,,0.00,Wunderground v.1.15,2013-02-27 09:50:00,
2013-02-27 01:55:00,42.0,34.0,30.18,ENE,70,1.0,3.0,73,0.00,,,0.00,Wunderground v.1.15,2013-02-27 09:55:00,
2013-02-27 02:00:00,41.9,34.2,30.18,ENE,70,1.0,1.0,74,0.00,,,0.00,Wunderground v.1.15,2013-02-27 10:00:00,
2013-02-27 02:05:00,41.8,33.8,30.18,ENE,70,0.0,3.0,73,0.00,,,0.00,Wunderground v.1.15,2013-02-27 10:05:00,
2013-02-27 02:10:00,41.8,34.1,30.18,ENE,70,0.0,3.0,74,0.00,,,0.00,Wunderground v.1.15,2013-02-27 10:10:00,
2013-02-27 02:20:00,41.7,34.0,30.19,ENE,70,1.0,1.0,74,0.00,,,0.00,Wunderground v.1.15,2013-02-27 10:20:00,
2013-02-27 02:25:00,41.7,34.0,30.18,ENE,70,0.0,3.0,74,0.00,,,0.00,Wunderground v.1.15,2013-02-27 10:25:00,
2013-02-27 02:30:00,41.6,33.9,30.19,ENE,70,0.0,3.0,74,0.00,,,0.00,Wunderground v.1.15,2013-02-27 10:30:00,
2013-02-27 02:35:00,41.6,34.3,30.19,ENE,70,0.0,3.0,75,0.00,,,0.00,Wunderground v.1.15,2013-02-27 10:35:00,
2013-02-27 02:40:00,41.6,33.9,30.19,ENE,70,0.0,3.0,74,0.00,,,0.00,Wunderground v.1.15,2013-02-27 10:40:00,
2013-02-27 02:45:00,41.6,33.9,30.19,ENE,70,0.0,3.0,74,0.00,,,0.00,Wunderground v.1.15,2013-02-27 10:45:00,
2013-02-27 02:50:00,41.5,33.8,30.19,ENE,70,0.0,3.0,74,0.00,,,0.00,Wunderground v.1.15,2013-02-27 10:50:00,
2013-02-27 02:55:00,41.5,33.8,30.19,ENE,70,0.0,3.0,74,0.00,,,0.00,Wunderground v.1.15,2013-02-27 10:55:00,
2013-02-27 03:00:00,41.5,33.8,30.19,ENE,70,0.0,3.0,74,0.00,,,0.00,Wunderground v.1.15,2013-02-27 11:00:00,
2013-02-27 03:05:00,41.4,33.7,30.19,ENE,70,0.0,3.0,74,0.00,,,0.00,Wunderground v.1.15,2013-02-27 11:05:00,
2013-02-27 03:10:00,41.3,33.6,30.19,ENE,70,0.0,3.0,74,0.00,,,0.00,Wunderground v.1.15,2013-02-27 11:10:00,
2013-02-27 03:20:00,41.2,33.9,30.19,ENE,70,0.0,3.0,75,0.00,,,0.00,Wunderground v.1.15,2013-02-27 11:20:00,
2013-02-27 03:25:00,41.1,33.8,30.20,ENE,70,0.0,3.0,75,0.00,,,0.00,Wunderground v.1.15,2013-02-27 11:25:00,
2013-02-27 03:30:00,41.0,33.7,30.20,ENE,70,0.0,3.0,75,0.00,,,0.00,Wunderground v.1.15,2013-02-27 11:30:00,
2013-02-27 03:35:00,40.9,33.6,30.19,ENE,70,1.0,3.0,75,0.00,,,0.00,Wunderground v.1.15,2013-02-27 11:35:00,
2013-02-27 03:40:00,40.7,33.4,30.20,ENE,70,0.0,3.0,75,0.00,,,0.00,Wunderground v.1.15,2013-02-27 11:40:00,
2013-02-27 03:45:00,40.7,33.7,30.20,ENE,70,0.0,3.0,76,0.00,,,0.00,Wunderground v.1.15,2013-02-27 11:45:00,
2013-02-27 03:50:00,40.6,33.6,30.20,ENE,70,0.0,3.0,76,0.00,,,0.00,Wunderground v.1.15,2013-02-27 11:50:00,
2013-02-27 03:55:00,40.5,33.5,30.19,ENE,70,0.0,3.0,76,0.00,,,0.00,Wunderground v.1.15,2013-02-27 11:55:00,
2013-02-27 04:00:00,40.5,33.5,30.20,ENE,70,0.0,3.0,76,0.00,,,0.00,Wunderground v.1.15,2013-02-27 12:00:00,
2013-02-27 04:05:00,40.4,33.8,30.20,ENE,70,0.0,3.0,77,0.00,,,0.00,Wunderground v.1.15,2013-02-27 12:05:00,
2013-02-27 04:10:00,40.3,33.7,30.20,ENE,70,1.0,3.0,77,0.00,,,0.00,Wunderground v.1.15,2013-02-27 12:10:00,
2013-02-27 04:15:00,40.3,33.7,30.20,ENE,70,0.0,3.0,77,0.00,,,0.00,Wunderground v.1.15,2013-02-27 12:15:00,
2013-02-27 04:25:00,40.2,33.6,30.20,ENE,70,0.0,3.0,77,0.00,,,0.00,Wunderground v.1.15,2013-02-27 12:25:00,
2013-02-27 04:30:00,40.1,33.5,30.20,ENE,70,0.0,3.0,77,0.00,,,0.00,Wunderground v.1.15,2013-02-27 12:30:00,
2013-02-27 04:35:00,40.1,33.8,30.20,ENE,70,1.0,3.0,78,0.00,,,0.00,Wunderground v.1.15,2013-02-27 12:35:00,
2013-02-27 04:40:00,40.1,33.8,30.20,ENE,70,1.0,1.0,78,0.00,,,0.00,Wunderground v.1.15,2013-02-27 12:40:00,
2013-02-27 04:45:00,40.1,33.8,30.20,ENE,70,0.0,3.0,78,0.00,,,0.00,Wunderground v.1.15,2013-02-27 12:45:00,
2013-02-27 04:50:00,40.2,33.6,30.20,ENE,70,0.0,3.0,77,0.00,,,0.00,Wunderground v.1.15,2013-02-27 12:50:00,
2013-02-27 04:55:00,40.3,33.7,30.20,ENE,70,0.0,3.0,77,0.00,,,0.00,Wunderground v.1.15,2013-02-27 12:55:00,
2013-02-27 05:00:00,40.4,33.8,30.20,ENE,70,0.0,3.0,77,0.00,,,0.00,Wunderground v.1.15,2013-02-27 13:00:00,
2013-02-27 05:05:00,40.4,33.8,30.20,ENE,70,0.0,3.0,77,0.00,,,0.00,Wunderground v.1.15,2013-02-27 13:05:00,
2013-02-27 05:10:00,40.4,33.8,30.20,ENE,70,0.0,3.0,77,0.00,,,0.00,Wunderground v.1.15,2013-02-27 13:10:00,
2013-02-27 05:15:00,40.4,33.8,30.20,ENE,70,1.0,3.0,77,0.00,,,0.00,Wunderground v.1.15,2013-02-27 13:15:00,
2013-02-27 05:25:00,40.3,33.7,30.21,ENE,70,0.0,3.0,77,0.00,,,0.00,Wunderground v.1.15,2013-02-27 13:25:00,
2013-02-27 05:30:00,40.3,34.0,30.21,ENE,70,0.0,3.0,78,0.00,,,0.00,Wunderground v.1.15,2013-02-27 13:30:00,
2013-02-27 05:35:00,40.2,33.6,30.20,ENE,70,1.0,3.0,77,0.00,,,0.00,Wunderground v.1.15,2013-02-27 13:35:00,
2013-02-27 05:40:00,40.2,33.6,30.20,ENE,70,1.0,1.0,77,0.00,,,0.00,Wunderground v.1.15,2013-02-27 13:40:00,
2013-02-27 05:45:00,40.2,33.6,30.21,ENE,70,0.0,3.0,77,0.00,,,0.00,Wunderground v.1.15,2013-02-27 13:45:00,
2013-02-27 05:50:00,40.4,33.8,30.20,ENE,70,0.0,3.0,77,0.00,,,0.00,Wunderground v.1.15,2013-02-27 13:50:00,
2013-02-27 05:55:00,40.4,33.4,30.20,ENE,70,0.0,3.0,76,0.00,,,0.00,Wunderground v.1.15,2013-02-27 13:55:00,
2013-02-27 06:00:00,40.3,33.0,30.21,ENE,70,0.0,3.0,75,0.00,,,0.00,Wunderground v.1.15,2013-02-27 14:00:00,
2013-02-27 06:05:00,40.4,32.8,30.21,ENE,70,0.0,3.0,74,0.00,,,0.00,Wunderground v.1.15,2013-02-27 14:05:00,
2013-02-27 06:10:00,40.3,32.7,30.21,ENE,69,0.0,3.0,74,0.00,,,0.00,Wunderground v.1.15,2013-02-27 14:10:00,
2013-02-27 06:15:00,40.1,32.5,30.21,ENE,69,1.0,3.0,74,0.00,,,0.00,Wunderground v.1.15,2013-02-27 14:15:00,
2013-02-27 06:20:00,40.0,32.4,30.21,ENE,69,1.0,1.0,74,0.00,,,0.00,Wunderground v.1.15,2013-02-27 14:20:00,
2013-02-27 06:30:00,39.8,32.2,30.21,ENE,58,1.0,1.0,74,0.00,,,0.00,Wunderground v.1.15,2013-02-27 14:30:00,
2013-02-27 06:35:00,39.9,32.3,30.21,ENE,58,1.0,3.0,74,0.00,,,0.00,Wunderground v.1.15,2013-02-27 14:35:00,
2013-02-27 06:40:00,39.9,31.9,30.21,ENE,58,0.0,3.0,73,0.00,,,0.00,Wunderground v.1.15,2013-02-27 14:40:00,
2013-02-27 06:45:00,39.8,31.8,30.22,ENE,58,0.0,3.0,73,0.00,,,0.00,Wunderground v.1.15,2013-02-27 14:45:00,
2013-02-27 06:50:00,39.7,31.8,30.22,ENE,58,0.0,3.0,73,0.00,,,0.00,Wunderground v.1.15,2013-02-27 14:50:00,
2013-02-27 06:55:00,39.7,31.8,30.23,ENE,58,0.0,3.0,73,0.00,,,0.00,Wunderground v.1.15,2013-02-27 14:55:00,
2013-02-27 07:00:00,39.7,31.8,30.23,ENE,58,0.0,3.0,73,0.00,,,0.00,Wunderground v.1.15,2013-02-27 15:00:00,
2013-02-27 07:05:00,39.7,31.8,30.23,ENE,58,1.0,3.0,73,0.00,,,0.00,Wunderground v.1.15,2013-02-27 15:05:00,
2013-02-27 07:10:00,39.8,32.5,30.24,ENE,58,1.0,1.0,75,0.00,,,0.00,Wunderground v.1.15,2013-02-27 15:10:00,
2013-02-27 07:15:00,39.9,32.6,30.24,ENE,58,1.0,3.0,75,0.00,,,0.00,Wunderground v.1.15,2013-02-27 15:15:00,
2013-02-27 07:20:00,40.0,32.7,30.23,ENE,58,0.0,3.0,75,0.00,,,0.00,Wunderground v.1.15,2013-02-27 15:20:00,
2013-02-27 07:30:00,40.3,33.3,30.24,ENE,58,0.0,3.0,76,0.00,,,0.00,Wunderground v.1.15,2013-02-27 15:30:00,
2013-02-27 07:35:00,40.5,33.9,30.24,ENE,58,0.0,3.0,77,0.00,,,0.00,Wunderground v.1.15,2013-02-27 15:35:00,
2013-02-27 07:40:00,40.7,34.4,30.24,ENE,58,0.0,3.0,78,0.00,,,0.00,Wunderground v.1.15,2013-02-27 15:40:00,
2013-02-27 07:45:00,41.0,34.7,30.25,ENE,58,0.0,3.0,78,0.00,,,0.00,Wunderground v.1.15,2013-02-27 15:45:00,
2013-02-27 07:50:00,41.3,35.0,30.25,ENE,58,0.0,3.0,78,0.00,,,0.00,Wunderground v.1.15,2013-02-27 15:50:00,
2013-02-27 07:55:00,41.7,35.3,30.25,ENE,58,0.0,3.0,78,0.00,,,0.00,Wunderground v.1.15,2013-02-27 15:55:00,
2013-02-27 08:00:00,42.2,36.2,30.26,ENE,58,0.0,3.0,79,0.00,,,0.00,Wunderground v.1.15,2013-02-27 16:00:00,
2013-02-27 08:05:00,42.8,36.7,30.26,ENE,58,0.0,3.0,79,0.00,,,0.00,Wunderground v.1.15,2013-02-27 16:05:00,
2013-02-27 08:10:00,43.6,37.2,30.27,ENE,58,0.0,3.0,78,0.00,,,0.00,Wunderground v.1.15,2013-02-27 16:10:00,
2013-02-27 08:20:00,46.1,37.9,30.27,South,186,0.0,3.0,73,0.00,,,0.00,Wunderground v.1.15,2013-02-27 16:20:00,
2013-02-27 08:25:00,47.3,38.0,30.28,South,186,0.0,3.0,70,0.00,,,0.00,Wunderground v.1.15,2013-02-27 16:25:00,
2013-02-27 08:35:00,49.4,38.5,30.28,South,186,0.0,3.0,66,0.00,,,0.00,Wunderground v.1.15,2013-02-27 16:35:00,
2013-02-27 08:40:00,50.1,38.4,30.28,South,186,0.0,3.0,64,0.00,,,0.00,Wunderground v.1.15,2013-02-27 16:40:00,
2013-02-27 08:45:00,50.5,38.4,30.28,South,186,1.0,3.0,63,0.00,,,0.00,Wunderground v.1.15,2013-02-27 16:45:00,
2013-02-27 08:50:00,51.1,37.7,30.27,South,186,1.0,1.0,60,0.00,,,0.00,Wunderground v.1.15,2013-02-27 16:50:00,
2013-02-27 08:55:00,51.5,37.6,30.27,South,186,0.0,3.0,59,0.00,,,0.00,Wunderground v.1.15,2013-02-27 16:55:00,
2013-02-27 09:00:00,52.1,37.8,30.28,South,186,0.0,3.0,58,0.00,,,0.00,Wunderground v.1.15,2013-02-27 17:00:00,
2013-02-27 09:05:00,52.4,38.5,30.28,South,186,0.0,3.0,59,0.00,,,0.00,Wunderground v.1.15,2013-02-27 17:05:00,
2013-02-27 09:10:00,52.4,39.3,30.28,WSW,246,1.0,3.0,61,0.00,,,0.00,Wunderground v.1.15,2013-02-27 17:10:00,
2013-02-27 09:15:00,52.3,40.1,30.28,SW,231,2.0,3.0,63,0.00,,,0.00,Wunderground v.1.15,2013-02-27 17:15:00,
2013-02-27 09:20:00,52.6,40.4,30.28,SW,226,1.0,1.0,63,0.00,,,0.00,Wunderground v.1.15,2013-02-27 17:20:00,
2013-02-27 09:25:00,53.1,40.8,30.28,East,98,0.0,3.0,63,0.00,,,0.00,Wunderground v.1.15,2013-02-27 17:25:00,
2013-02-27 09:35:00,54.3,40.3,30.28,ESE,102,0.0,3.0,59,0.00,,,0.00,Wunderground v.1.15,2013-02-27 17:35:00,
2013-02-27 09:40:00,55.0,40.5,30.28,ESE,103,0.0,3.0,58,0.00,,,0.00,Wunderground v.1.15,2013-02-27 17:40:00,
2013-02-27 09:45:00,55.8,40.8,30.28,ESE,122,0.0,3.0,57,0.00,,,0.00,Wunderground v.1.15,2013-02-27 17:45:00,
2013-02-27 09:50:00,56.2,41.6,30.29,SW,227,1.0,4.0,58,0.00,,,0.00,Wunderground v.1.15,2013-02-27 17:50:00,
2013-02-27 09:55:00,56.0,41.4,30.29,SSW,199,3.0,4.0,58,0.00,,,0.00,Wunderground v.1.15,2013-02-27 17:55:00,
2013-02-27 10:00:00,56.0,41.0,30.29,SW,233,3.0,3.0,57,0.00,,,0.00,Wunderground v.1.15,2013-02-27 18:00:00,
2013-02-27 10:05:00,56.6,41.5,30.29,South,172,2.0,3.0,57,0.00,,,0.00,Wunderground v.1.15,2013-02-27 18:05:00,
2013-02-27 10:10:00,57.2,42.1,30.29,SSE,166,2.0,3.0,57,0.00,,,0.00,Wunderground v.1.15,2013-02-27 18:10:00,
2013-02-27 10:15:00,57.7,41.6,30.29,SW,228,2.0,3.0,55,0.00,,,0.00,Wunderground v.1.15,2013-02-27 18:15:00,
2013-02-27 10:20:00,58.0,41.9,30.29,SW,231,2.0,4.0,55,0.00,,,0.00,Wunderground v.1.15,2013-02-27 18:20:00,
2013-02-27 10:25:00,57.7,40.7,30.29,SW,227,3.0,5.0,53,0.00,,,0.00,Wunderground v.1.15,2013-02-27 18:25:00,
2013-02-27 10:30:00,57.3,39.8,30.29,WSW,238,4.0,4.0,52,0.00,,,0.00,Wunderground v.1.15,2013-02-27 18:30:00,
2013-02-27 10:40:00,57.9,40.4,30.28,South,173,2.0,3.0,52,0.00,,,0.00,Wunderground v.1.15,2013-02-27 18:40:00,
2013-02-27 10:45:00,58.7,40.6,30.29,South,182,3.0,5.0,51,0.00,,,0.00,Wunderground v.1.15,2013-02-27 18:45:00,
2013-02-27 10:50:00,59.0,40.4,30.29,SSE,155,3.0,3.0,50,0.00,,,0.00,Wunderground v.1.15,2013-02-27 18:50:00,
2013-02-27 10:55:00,59.3,40.1,30.29,South,173,3.0,4.0,49,0.00,,,0.00,Wunderground v.1.15,2013-02-27 18:55:00,
2013-02-27 11:00:00,59.9,41.2,30.28,South,179,3.0,5.0,50,0.00,,,0.00,Wunderground v.1.15,2013-02-27 19:00:00,
2013-02-27 11:05:00,60.5,41.2,30.28,SSE,167,3.0,5.0,49,0.00,,,0.00,Wunderground v.1.15,2013-02-27 19:05:00,
2013-02-27 11:10:00,61.1,41.2,30.28,SSE,168,3.0,3.0,48,0.00,,,0.00,Wunderground v.1.15,2013-02-27 19:10:00,
2013-02-27 11:15:00,61.4,41.5,30.28,South,171,3.0,3.0,48,0.00,,,0.00,Wunderground v.1.15,2013-02-27 19:15:00,
2013-02-27 11:20:00,61.9,42.0,30.27,SSE,162,3.0,3.0,48,0.00,,,0.00,Wunderground v.1.15,2013-02-27 19:20:00,
2013-02-27 11:25:00,62.5,42.0,30.27,SSE,147,2.0,3.0,47,0.00,,,0.00,Wunderground v.1.15,2013-02-27 19:25:00,
2013-02-27 11:30:00,63.1,43.1,30.27,South,172,2.0,2.0,48,0.00,,,0.00,Wunderground v.1.15,2013-02-27 19:30:00,
2013-02-27 11:40:00,64.3,42.5,30.27,WSW,252,3.0,4.0,45,0.00,,,0.00,Wunderground v.1.15,2013-02-27 19:40:00,
2013-02-27 11:45:00,64.0,41.6,30.27,WSW,245,4.0,4.0,44,0.00,,,0.00,Wunderground v.1.15,2013-02-27 19:45:00,
2013-02-27 11:50:00,63.8,41.5,30.27,South,191,4.0,5.0,44,0.00,,,0.00,Wunderground v.1.15,2013-02-27 19:50:00,
2013-02-27 11:55:00,63.9,41.0,30.27,South,176,4.0,5.0,43,0.00,,,0.00,Wunderground v.1.15,2013-02-27 19:55:00,
2013-02-27 12:00:00,64.1,40.5,30.27,SW,230,4.0,6.0,42,0.00,,,0.00,Wunderground v.1.15,2013-02-27 20:00:00,
2013-02-27 12:05:00,63.0,40.1,30.27,SSW,211,4.0,6.0,43,0.00,,,0.00,Wunderground v.1.15,2013-02-27 20:05:00,
2013-02-27 12:10:00,63.1,40.2,30.27,South,185,4.0,6.0,43,0.00,,,0.00,Wunderground v.1.15,2013-02-27 20:10:00,
2013-02-27 12:15:00,63.1,40.2,30.27,SW,219,4.0,6.0,43,0.00,,,0.00,Wunderground v.1.15,2013-02-27 20:15:00,
2013-02-27 12:20:00,63.3,38.6,30.27,South,180,4.0,4.0,40,0.00,,,0.00,Wunderground v.1.15,2013-02-27 20:20:00,
2013-02-27 12:25:00,63.7,39.5,30.27,WSW,239,4.0,4.0,41,0.00,,,0.00,Wunderground v.1.15,2013-02-27 20:25:00,
2013-02-27 12:30:00,64.6,41.6,30.27,SSW,194,3.0,3.0,43,0.00,,,0.00,Wunderground v.1.15,2013-02-27 20:30:00,
2013-02-27 12:35:00,64.5,40.3,30.26,SSW,209,3.0,3.0,41,0.00,,,0.00,Wunderground v.1.15,2013-02-27 20:35:00,
2013-02-27 12:45:00,64.7,44.5,30.26,WSW,248,4.0,5.0,48,0.00,,,0.00,Wunderground v.1.15,2013-02-27 20:45:00,
2013-02-27 12:50:00,64.9,44.2,30.26,SSW,210,3.0,4.0,47,0.00,,,0.00,Wunderground v.1.15,2013-02-27 20:50:00,
2013-02-27 12:55:00,65.2,44.5,30.25,South,178,3.0,4.0,47,0.00,,,0.00,Wunderground v.1.15,2013-02-27 20:55:00,
2013-02-27 13:00:00,65.4,45.2,30.26,South,184,3.0,3.0,48,0.00,,,0.00,Wunderground v.1.15,2013-02-27 21:00:00,
2013-02-27 13:05:00,65.6,45.4,30.25,SSW,193,4.0,4.0,48,0.00,,,0.00,Wunderground v.1.15,2013-02-27 21:05:00,
2013-02-27 13:15:00,65.3,46.2,30.25,SW,223,5.0,6.0,50,0.00,,,0.00,Wunderground v.1.15,2013-02-27 21:15:00,
2013-02-27 13:20:00,65.5,45.3,30.25,SW,220,5.0,5.0,48,0.00,,,0.00,Wunderground v.1.15,2013-02-27 21:20:00,
2013-02-27 13:25:00,65.4,45.2,30.24,South,184,4.0,5.0,48,0.00,,,0.00,Wunderground v.1.15,2013-02-27 21:25:00,
2013-02-27 13:30:00,65.8,45.0,30.24,South,174,4.0,4.0,47,0.00,,,0.00,Wunderground v.1.15,2013-02-27 21:30:00,
2013-02-27 13:35:00,66.3,44.3,30.24,South,182,3.0,4.0,45,0.00,,,0.00,Wunderground v.1.15,2013-02-27 21:35:00,
2013-02-27 13:40:00,67.2,44.5,30.24,SSW,203,4.0,4.0,44,0.00,,,0.00,Wunderground v.1.15,2013-02-27 21:40:00,
2013-02-27 13:45:00,67.9,44.0,30.24,SW,233,4.0,6.0,42,0.00,,,0.00,Wunderground v.1.15,2013-02-27 21:45:00,
2013-02-27 13:50:00,67.5,43.6,30.24,South,172,4.0,4.0,42,0.00,,,0.00,Wunderground v.1.15,2013-02-27 21:50:00,
2013-02-27 14:00:00,67.5,42.3,30.24,SSW,210,5.0,10.0,40,0.00,,,0.00,Wunderground v.1.15,2013-02-27 22:00:00,
2013-02-27 14:05:00,67.3,42.1,30.24,South,174,5.0,10.0,40,0.00,,,0.00,Wunderground v.1.15,2013-02-27 22:05:00,
2013-02-27 14:10:00,67.4,40.9,30.24,SSW,202,6.0,6.0,38,0.00,,,0.00,Wunderground v.1.15,2013-02-27 22:10:00,
2013-02-27 14:20:00,67.6,41.1,30.23,SW,221,5.0,5.0,38,0.00,,,0.00,Wunderground v.1.15,2013-02-27 22:20:00,
2013-02-27 14:25:00,67.7,41.2,30.23,South,186,5.0,5.0,38,0.00,,,0.00,Wunderground v.1.15,2013-02-27 22:25:00,
2013-02-27 14:30:00,67.5,39.6,30.24,SSW,210,6.0,6.0,36,0.00,,,0.00,Wunderground v.1.15,2013-02-27 22:30:00,
2013-02-27 14:35:00,67.3,40.1,30.24,SW,219,6.0,6.0,37,0.00,,,0.00,Wunderground v.1.15,2013-02-27 22:35:00,
2013-02-27 14:40:00,66.9,40.5,30.24,SW,216,6.0,7.0,38,0.00,,,0.00,Wunderground v.1.15,2013-02-27 22:40:00,
2013-02-27 14:50:00,66.3,39.2,30.24,SW,235,6.0,6.0,37,0.00,,,0.00,Wunderground v.1.15,2013-02-27 22:50:00,
2013-02-27 14:55:00,66.3,39.2,30.24,SSW,213,6.0,6.0,37,0.00,,,0.00,Wunderground v.1.15,2013-02-27 22:55:00,
2013-02-27 15:00:00,66.6,38.8,30.24,West,259,5.0,7.0,36,0.00,,,0.00,Wunderground v.1.15,2013-02-27 23:00:00,
2013-02-27 15:05:00,67.0,36.9,30.24,WNW,303,4.0,7.0,33,0.00,,,0.00,Wunderground v.1.15,2013-02-27 23:05:00,
2013-02-27 15:10:00,67.6,36.7,30.24,WSW,257,4.0,4.0,32,0.00,,,0.00,Wunderground v.1.15,2013-02-27 23:10:00,
2013-02-27 15:20:00,67.4,35.7,30.24,WNW,290,3.0,3.0,31,0.00,,,0.00,Wunderground v.1.15,2013-02-27 23:20:00,
2013-02-27 15:25:00,67.7,36.0,30.24,NW,304,4.0,4.0,31,0.00,,,0.00,Wunderground v.1.15,2013-02-27 23:25:00,
2013-02-27 15:30:00,68.1,35.5,30.24,WSW,252,3.0,5.0,30,0.00,,,0.00,Wunderground v.1.15,2013-02-27 23:30:00,
2013-02-27 15:35:00,67.4,35.7,30.24,SSW,199,4.0,6.0,31,0.00,,,0.00,Wunderground v.1.15,2013-02-27 23:35:00,
2013-02-27 15:40:00,67.0,35.3,30.24,WSW,257,5.0,6.0,31,0.00,,,0.00,Wunderground v.1.15,2013-02-27 23:40:00,
2013-02-27 15:45:00,66.8,35.2,30.24,SSW,213,5.0,6.0,31,0.00,,,0.00,Wunderground v.1.15,2013-02-27 23:45:00,
2013-02-27 15:55:00,67.2,35.5,30.24,SSW,207,3.0,4.0,31,0.00,,,0.00,Wunderground v.1.15,2013-02-27 23:55:00,
2013-02-27 16:00:00,67.5,35.8,30.24,South,178,3.0,3.0,31,0.00,,,0.00,Wunderground v.1.15,2013-02-28 00:00:00,
2013-02-27 16:05:00,67.6,37.5,30.24,WSW,238,4.0,5.0,33,0.00,,,0.00,Wunderground v.1.15,2013-02-28 00:05:00,
2013-02-27 16:15:00,67.2,39.3,30.24,WSW,258,4.0,6.0,36,0.00,,,0.00,Wunderground v.1.15,2013-02-28 00:15:00,
2013-02-27 16:20:00,67.4,40.9,30.24,SSW,200,4.0,4.0,38,0.00,,,0.00,Wunderground v.1.15,2013-02-28 00:20:00,
2013-02-27 16:25:00,67.2,42.7,30.24,South,190,3.0,4.0,41,0.00,,,0.00,Wunderground v.1.15,2013-02-28 00:25:00,
2013-02-27 16:30:00,67.1,42.6,30.24,SW,230,4.0,6.0,41,0.00,,,0.00,Wunderground v.1.15,2013-02-28 00:30:00,
2013-02-27 16:35:00,66.4,43.2,30.24,SW,219,5.0,7.0,43,0.00,,,0.00,Wunderground v.1.15,2013-02-28 00:35:00,
2013-02-27 16:40:00,65.4,44.1,30.24,SW,220,6.0,6.0,46,0.00,,,0.00,Wunderground v.1.15,2013-02-28 00:40:00,
2013-02-27 16:45:00,64.5,44.4,30.24,WSW,248,6.0,6.0,48,0.00,,,0.00,Wunderground v.1.15,2013-02-28 00:45:00,
2013-02-27 16:55:00,63.2,45.8,30.24,SW,231,6.0,7.0,53,0.00,,,0.00,Wunderground v.1.15,2013-02-28 00:55:00,
2013-02-27 17:00:00,63.0,45.1,30.24,SW,231,6.0,6.0,52,0.00,,,0.00,Wunderground v.1.15,2013-02-28 01:00:00,
2013-02-27 17:05:00,62.7,44.8,30.24,SW,215,5.0,6.0,52,0.00,,,0.00,Wunderground v.1.15,2013-02-28 01:05:00,
2013-02-27 17:10:00,62.8,44.9,30.24,SSW,193,4.0,4.0,52,0.00,,,0.00,Wunderground v.1.15,2013-02-28 01:10:00,
2013-02-27 17:15:00,62.8,44.9,30.24,SW,224,4.0,5.0,52,0.00,,,0.00,Wunderground v.1.15,2013-02-28 01:15:00,
2013-02-27 17:20:00,62.8,41.7,30.25,SSW,198,4.0,4.0,46,0.00,,,0.00,Wunderground v.1.15,2013-02-28 01:20:00,
2013-02-27 17:25:00,62.7,41.0,30.25,SSW,207,3.0,4.0,45,0.00,,,0.00,Wunderground v.1.15,2013-02-28 01:25:00,
2013-02-27 17:30:00,62.7,39.9,30.25,SW,219,3.0,3.0,43,0.00,,,0.00,Wunderground v.1.15,2013-02-28 01:30:00,
2013-02-27 17:35:00,62.5,39.7,30.25,WSW,243,2.0,4.0,43,0.00,,,0.00,Wunderground v.1.15,2013-02-28 01:35:00,
2013-02-27 17:40:00,62.4,40.2,30.25,SW,229,2.0,2.0,44,0.00,,,0.00,Wunderground v.1.15,2013-02-28 01:40:00,
2013-02-27 17:45:00,62.2,39.4,30.25,SW,229,1.0,3.0,43,0.00,,,0.00,Wunderground v.1.15,2013-02-28 01:45:00,
2013-02-27 17:50:00,61.7,40.1,30.25,SW,229,0.0,3.0,45,0.00,,,0.00,Wunderground v.1.15,2013-02-28 01:50:00,
2013-02-27 18:00:00,60.5,41.2,30.25,SW,229,0.0,3.0,49,0.00,,,0.00,Wunderground v.1.15,2013-02-28 02:00:00,
2013-02-27 18:05:00,59.7,41.5,30.26,SW,229,0.0,3.0,51,0.00,,,0.00,Wunderground v.1.15,2013-02-28 02:05:00,
2013-02-27 18:10:00,58.8,41.2,30.26,SW,229,1.0,1.0,52,0.00,,,0.00,Wunderground v.1.15,2013-02-28 02:10:00,
2013-02-27 18:15:00,58.1,41.0,30.26,SW,229,1.0,3.0,53,0.00,,,0.00,Wunderground v.1.15,2013-02-28 02:15:00,
2013-02-27 18:20:00,57.5,41.0,30.26,SW,229,0.0,3.0,54,0.00,,,0.00,Wunderground v.1.15,2013-02-28 02:20:00,
2013-02-27 18:30:00,56.4,39.5,30.27,SSW,213,1.0,1.0,53,0.00,,,0.00,Wunderground v.1.15,2013-02-28 02:30:00,
2013-02-27 18:35:00,55.8,39.4,30.27,SSW,213,1.0,3.0,54,0.00,,,0.00,Wunderground v.1.15,2013-02-28 02:35:00,
2013-02-27 18:40:00,55.3,38.9,30.27,SSW,213,0.0,3.0,54,0.00,,,0.00,Wunderground v.1.15,2013-02-28 02:40:00,
2013-02-27 18:45:00,54.9,39.0,30.27,SSW,213,0.0,3.0,55,0.00,,,0.00,Wunderground v.1.15,2013-02-28 02:45:00,
2013-02-27 18:50:00,54.4,39.5,30.27,SSW,213,0.0,3.0,57,0.00,,,0.00,Wunderground v.1.15,2013-02-28 02:50:00,
2013-02-27 19:00:00,53.2,39.7,30.28,SSW,213,0.0,3.0,60,0.00,,,0.00,Wunderground v.1.15,2013-02-28 03:00:00,
2013-02-27 19:05:00,52.7,39.6,30.29,SSW,213,0.0,3.0,61,0.00,,,0.00,Wunderground v.1.15,2013-02-28 03:05:00,
2013-02-27 19:10:00,52.3,39.7,30.29,SSW,213,0.0,3.0,62,0.00,,,0.00,Wunderground v.1.15,2013-02-28 03:10:00,
2013-02-27 19:15:00,51.8,39.6,30.29,SSW,213,0.0,3.0,63,0.00,,,0.00,Wunderground v.1.15,2013-02-28 03:15:00,
2013-02-27 19:20:00,51.4,39.2,30.29,SSW,213,0.0,3.0,63,0.00,,,0.00,Wunderground v.1.15,2013-02-28 03:20:00,
2013-02-27 19:30:00,50.5,39.6,30.29,SSW,213,0.0,3.0,66,0.00,,,0.00,Wunderground v.1.15,2013-02-28 03:30:00,
2013-02-27 19:35:00,50.1,39.2,30.29,SSW,213,0.0,3.0,66,0.00,,,0.00,Wunderground v.1.15,2013-02-28 03:35:00,
2013-02-27 19:40:00,49.8,39.3,30.30,SSW,213,0.0,3.0,67,0.00,,,0.00,Wunderground v.1.15,2013-02-28 03:40:00,
2013-02-27 19:45:00,49.4,39.3,30.30,SSW,213,0.0,3.0,68,0.00,,,0.00,Wunderground v.1.15,2013-02-28 03:45:00,
2013-02-27 19:50:00,49.1,38.6,30.30,SSW,213,0.0,3.0,67,0.00,,,0.00,Wunderground v.1.15,2013-02-28 03:50:00,
2013-02-27 19:55:00,48.8,39.1,30.30,SSW,213,0.0,3.0,69,0.00,,,0.00,Wunderground v.1.15,2013-02-28 03:55:00,
2013-02-27 20:05:00,48.2,38.9,30.31,SSW,213,0.0,3.0,70,0.00,,,0.00,Wunderground v.1.15,2013-02-28 04:05:00,
2013-02-27 20:10:00,47.9,38.6,30.31,SSW,198,0.0,3.0,70,0.00,,,0.00,Wunderground v.1.15,2013-02-28 04:10:00,
2013-02-27 20:15:00,47.7,38.8,30.31,SSW,198,0.0,3.0,71,0.00,,,0.00,Wunderground v.1.15,2013-02-28 04:15:00,
2013-02-27 20:20:00,47.5,39.3,30.31,SSW,198,0.0,3.0,73,0.00,,,0.00,Wunderground v.1.15,2013-02-28 04:20:00,
2013-02-27 20:25:00,47.4,39.5,30.31,SSW,198,0.0,3.0,74,0.00,,,0.00,Wunderground v.1.15,2013-02-28 04:25:00,
2013-02-27 20:35:00,47.1,39.6,30.31,South,191,0.0,3.0,75,0.00,,,0.00,Wunderground v.1.15,2013-02-28 04:35:00,
2013-02-27 20:40:00,47.0,39.8,30.32,South,191,0.0,3.0,76,0.00,,,0.00,Wunderground v.1.15,2013-02-28 04:40:00,
2013-02-27 20:45:00,46.9,40.1,30.32,South,191,0.0,3.0,77,0.00,,,0.00,Wunderground v.1.15,2013-02-28 04:45:00,
2013-02-27 20:50:00,46.8,41.0,30.32,South,191,0.0,3.0,80,0.00,,,0.00,Wunderground v.1.15,2013-02-28 04:50:00,
2013-02-27 20:55:00,46.9,42.0,30.32,South,191,0.0,3.0,83,0.00,,,0.00,Wunderground v.1.15,2013-02-28 04:55:00,
2013-02-27 21:00:00,47.0,42.4,30.32,SSW,204,0.0,3.0,84,0.00,,,0.00,Wunderground v.1.15,2013-02-28 05:00:00,
2013-02-27 21:05:00,47.2,43.5,30.32,SSW,204,0.0,3.0,87,0.00,,,0.00,Wunderground v.1.15,2013-02-28 05:05:00,
2013-02-27 21:10:00,47.4,44.0,30.32,SSW,204,0.0,3.0,88,0.00,,,0.00,Wunderground v.1.15,2013-02-28 05:10:00,
2013-02-27 21:15:00,47.6,44.2,30.32,West,276,0.0,3.0,88,0.00,,,0.00,Wunderground v.1.15,2013-02-28 05:15:00,
2013-02-27 21:20:00,47.7,44.3,30.32,West,276,0.0,3.0,88,0.00,,,0.00,Wunderground v.1.15,2013-02-28 05:20:00,
2013-02-27 21:25:00,47.7,44.6,30.33,West,276,0.0,3.0,89,0.00,,,0.00,Wunderground v.1.15,2013-02-28 05:25:00,
2013-02-27 21:35:00,47.6,44.2,30.33,West,276,0.0,3.0,88,0.00,,,0.00,Wunderground v.1.15,2013-02-28 05:35:00,
2013-02-27 21:40:00,47.6,44.5,30.33,West,276,0.0,3.0,89,0.00,,,0.00,Wunderground v.1.15,2013-02-28 05:40:00,
2013-02-27 21:45:00,47.5,44.4,30.33,SSE,167,0.0,3.0,89,0.00,,,0.00,Wunderground v.1.15,2013-02-28 05:45:00,
2013-02-27 21:50:00,47.6,44.5,30.33,SE,137,0.0,3.0,89,0.00,,,0.00,Wunderground v.1.15,2013-02-28 05:50:00,
2013-02-27 21:55:00,47.7,44.9,30.33,SE,137,0.0,3.0,90,0.00,,,0.00,Wunderground v.1.15,2013-02-28 05:55:00,
2013-02-27 22:00:00,47.6,44.5,30.33,SE,137,0.0,3.0,89,0.00,,,0.00,Wunderground v.1.15,2013-02-28 06:00:00,
2013-02-27 22:10:00,47.5,44.7,30.33,East,84,0.0,3.0,90,0.00,,,0.00,Wunderground v.1.15,2013-02-28 06:10:00,
2013-02-27 22:15:00,47.4,44.6,30.33,East,94,0.0,3.0,90,0.00,,,0.00,Wunderground v.1.15,2013-02-28 06:15:00,
2013-02-27 22:20:00,47.3,44.5,30.33,East,94,0.0,3.0,90,0.00,,,0.00,Wunderground v.1.15,2013-02-28 06:20:00,
2013-02-27 22:25:00,47.1,44.3,30.33,East,89,0.0,3.0,90,0.00,,,0.00,Wunderground v.1.15,2013-02-28 06:25:00,
2013-02-27 22:30:00,47.0,44.5,30.33,East,92,0.0,3.0,91,0.00,,,0.00,Wunderground v.1.15,2013-02-28 06:30:00,
2013-02-27 22:40:00,46.9,44.4,30.33,ENE,68,1.0,1.0,91,0.00,,,0.00,Wunderground v.1.15,2013-02-28 06:40:00,
2013-02-27 22:45:00,46.8,44.3,30.33,East,85,1.0,2.0,91,0.00,,,0.00,Wunderground v.1.15,2013-02-28 06:45:00,
2013-02-27 22:50:00,46.7,44.2,30.33,East,86,0.0,3.0,91,0.00,,,0.00,Wunderground v.1.15,2013-02-28 06:50:00,
2013-02-27 22:55:00,46.7,44.2,30.33,East,84,0.0,3.0,91,0.00,,,0.00,Wunderground v.1.15,2013-02-28 06:55:00,
2013-02-27 23:00:00,46.7,44.5,30.33,East,84,0.0,3.0,92,0.00,,,0.00,Wunderground v.1.15,2013-02-28 07:00:00,
2013-02-27 23:10:00,46.5,44.3,30.33,ENE,64,1.0,3.0,92,0.00,,,0.00,Wunderground v.1.15,2013-02-28 07:10:00,
2013-02-27 23:15:00,46.5,44.3,30.33,ENE,78,1.0,3.0,92,0.00,,,0.00,Wunderground v.1.15,2013-02-28 07:15:00,
2013-02-27 23:20:00,46.5,44.3,30.33,ENE,71,0.0,3.0,92,0.00,,,0.00,Wunderground v.1.15,2013-02-28 07:20:00,
2013-02-27 23:25:00,46.5,44.3,30.33,ENE,64,1.0,3.0,92,0.00,,,0.00,Wunderground v.1.15,2013-02-28 07:25:00,
2013-02-27 23:30:00,46.5,44.6,30.33,East,82,1.0,1.0,93,0.00,,,0.00,Wunderground v.1.15,2013-02-28 07:30:00,
2013-02-27 23:40:00,46.5,44.6,30.33,NE,53,2.0,3.0,93,0.00,,,0.00,Wunderground v.1.15,2013-02-28 07:40:00,
2013-02-27 23:45:00,46.4,44.5,30.33,ENE,68,2.0,3.0,93,0.00,,,0.00,Wunderground v.1.15,2013-02-28 07:45:00,
2013-02-27 23:50:00,46.4,44.2,30.33,NE,51,2.0,2.0,92,0.00,,,0.00,Wunderground v.1.15,2013-02-28 07:50:00,
2013-02-27 23:55:00,46.3,44.1,30.33,NE,47,1.0,3.0,92,0.00,,,0.00,Wunderground v.1.15,2013-02-28 07:55:00,